"lat","lon","GMT"
39.0799089800566,1.61095191724598,2015-07-15 02:02:05
39.08238097094,1.61671497859061,2015-07-15 02:12:04
39.0865869261324,1.62209699861705,2015-07-15 02:22:04
39.0902149491012,1.62810699082911,2015-07-15 02:32:03
39.0930429194123,1.6342119500041,2015-07-15 02:42:02
39.0961659327149,1.64027592167258,2015-07-15 02:52:02
39.0994539856911,1.64571795612574,2015-07-15 03:02:02
39.1032969206572,1.6521679982543,2015-07-15 03:12:03
39.1066299844533,1.65693495422602,2015-07-15 03:22:02
39.10873292014,1.6600249428302,2015-07-15 03:32:02
39.1119299456477,1.66638496331871,2015-07-15 03:42:01
39.1150449961424,1.67139591649175,2015-07-15 03:52:01
39.1179839428514,1.67633193545043,2015-07-15 04:02:01
39.1210879292339,1.68113895691931,2015-07-15 04:12:01
39.124050932005,1.68636297807097,2015-07-15 04:22:02
39.1272009350359,1.69175195507705,2015-07-15 04:32:04
39.1299859900028,1.6963049210608,2015-07-15 04:42:04
39.1330069955438,1.70142894610763,2015-07-15 04:52:03
39.135533971712,1.70592298731208,2015-07-15 05:02:04
39.1382769495249,1.70967397280037,2015-07-15 05:13:05
39.1418739594519,1.71480897814035,2015-07-15 05:23:04
39.1444769594818,1.71927695162594,2015-07-15 05:33:03
39.1471799556166,1.72356395982206,2015-07-15 05:43:02
39.1503769811243,1.72848497517407,2015-07-15 05:53:01
39.1527579445392,1.73191795125604,2015-07-15 06:03:05
39.1553899459541,1.73515194095671,2015-07-15 06:14:03
39.1582309920341,1.73918497748673,2015-07-15 06:24:02
39.16124898009,1.7435019928962,2015-07-15 06:34:02
39.1639669798315,1.74828093498945,2015-07-15 06:44:01
39.1664759349078,1.75235697068274,2015-07-15 06:54:02
39.1685399785638,1.7562619317323,2015-07-15 07:04:02
39.1708299983293,1.76008399575949,2015-07-15 07:14:02
39.1731589939445,1.76417394541204,2015-07-15 07:24:02
39.175181966275,1.76799198612571,2015-07-15 07:35:05
39.1769689880311,1.77420297637582,2015-07-15 07:46:00
39.1795359458774,1.77864194847643,2015-07-15 07:56:00
39.1820399556309,1.78230995312333,2015-07-15 08:06:01
39.1847049817443,1.78668597713113,2015-07-15 08:16:01
39.1872829198837,1.79126794449985,2015-07-15 08:26:02
39.1893259249628,1.79450897499919,2015-07-15 08:36:02
39.1915349755436,1.79895993322134,2015-07-15 08:46:02
39.1949979588389,1.80261997506022,2015-07-15 08:56:02
39.1980799846351,1.80597994476557,2015-07-15 09:06:02
39.2013549618423,1.80953093804419,2015-07-15 09:16:01
39.2040559463203,1.81371694430709,2015-07-15 09:26:00
39.2064609657973,1.81859294883907,2015-07-15 09:36:02
39.209073940292,1.82272899895906,2015-07-15 09:46:03
39.2116889264435,1.82678994722664,2015-07-15 09:56:02
39.2141499370337,1.83079197071493,2015-07-15 10:06:02
39.2167729698122,1.83535591699183,2015-07-15 10:16:02
39.2193979304284,1.83947394602001,2015-07-15 10:26:01
39.2219999246299,1.84355794452131,2015-07-15 10:36:02
39.2238749563694,1.84786892496049,2015-07-15 10:46:02
39.2259169556201,1.85241694562137,2015-07-15 10:56:02
39.2283319495618,1.85721298679709,2015-07-15 11:06:04
39.2301119305193,1.860555941239,2015-07-15 11:16:03
39.2325569316745,1.86499499715865,2015-07-15 11:26:04
39.2351319361478,1.86967595480382,2015-07-15 11:36:04
39.2376469261944,1.87448699958622,2015-07-15 11:46:04
39.2410429380834,1.87946199439466,2015-07-15 11:56:04
39.2440999858081,1.88445199280977,2015-07-15 12:06:03
39.2467999644578,1.88587993383408,2015-07-15 12:16:02
39.2501159291714,1.8915029335767,2015-07-15 12:26:02
39.2526739183813,1.89642596058547,2015-07-15 12:36:03
39.254559930414,1.900943974033,2015-07-15 12:46:03
39.257601974532,1.90575795248151,2015-07-15 12:56:04
39.2616869788617,1.90926091745496,2015-07-15 13:06:03
39.2656829673797,1.91220799461007,2015-07-15 13:16:02
39.2703449819237,1.91647798754275,2015-07-15 13:26:02
39.2740789521486,1.92031798884273,2015-07-15 13:36:02
39.2784429900348,1.92474698647857,2015-07-15 13:46:01
39.2824849952012,1.92899099551141,2015-07-15 13:56:01
39.2866959795356,1.93321597762406,2015-07-15 14:06:00
39.2907209694386,1.93731992505491,2015-07-15 14:16:01
39.2951709218323,1.94229894317687,2015-07-15 14:26:03
39.2992059700191,1.94711099378765,2015-07-15 14:36:02
39.303124928847,1.95183394476771,2015-07-15 14:46:01
39.3067999742925,1.95799397304654,2015-07-15 14:56:01
39.3092649243772,1.96413991972804,2015-07-15 15:06:01
39.3108249641955,1.97008998133242,2015-07-15 15:16:02
39.3115149624646,1.97481796145439,2015-07-15 15:26:01
39.3120539188385,1.98142893612385,2015-07-15 15:36:00
39.3133609928191,1.98662295006216,2015-07-15 15:46:01
39.3143939785659,1.99310995638371,2015-07-15 15:56:01
39.3158559501171,2.00074293650687,2015-07-15 16:06:00
39.3179309740663,2.00676399283111,2015-07-15 16:16:00
39.3211569171399,2.01293097808957,2015-07-15 16:26:00
39.3243929184973,2.01752291992307,2015-07-15 16:36:00
39.3279549758881,2.02386491931975,2015-07-15 16:46:00
39.3320339452475,2.02970492653549,2015-07-15 16:56:01
39.3346619233489,2.03406393527985,2015-07-15 17:06:00
39.3382929638028,2.04004894942045,2015-07-15 17:16:02
39.3414919171482,2.04617796465755,2015-07-15 17:26:02
39.3442869465798,2.05153098329902,2015-07-15 17:36:02
39.3474889174104,2.05739596858621,2015-07-15 17:46:02
39.3503749743104,2.06325491890311,2015-07-15 17:56:02
39.3530409224331,2.06792095676064,2015-07-15 18:06:01
39.3562899995595,2.07368292845786,2015-07-15 18:16:00
39.359097937122,2.0793239492923,2015-07-15 18:26:00
39.3608299735934,2.08464092575014,2015-07-15 18:36:00
39.3642839882523,2.0904659293592,2015-07-15 18:46:01
39.3671499285847,2.09511796943843,2015-07-15 18:56:01
39.3696819338948,2.09951997734606,2015-07-15 19:06:00
39.3728199508041,2.10456999018788,2015-07-15 19:16:00
39.3756879866123,2.1089259814471,2015-07-15 19:26:01
39.3784909788519,2.11331298574805,2015-07-15 19:36:00
39.3807779811323,2.11767199449241,2015-07-15 19:46:00
39.3831949867308,2.1219309233129,2015-07-15 19:56:00
39.3851099163294,2.1245039999485,2015-07-15 20:06:02
39.3879039399326,2.1289799362421,2015-07-15 20:16:03
39.3905709777027,2.13319393806159,2015-07-15 20:26:03
39.3916029576212,2.13567799888551,2015-07-15 20:38:02
39.3943619448692,2.13884392753243,2015-07-15 20:48:01
39.3971039168537,2.14251394383609,2015-07-15 20:58:00
39.3983439356089,2.14569495990872,2015-07-15 21:08:01
39.4003309495747,2.14955097064376,2015-07-15 21:18:01
39.4022599607706,2.15295393951237,2015-07-15 21:28:00
39.4042029697448,2.15615197084844,2015-07-15 21:38:00
39.4062709528953,2.15903299860656,2015-07-15 21:48:01
39.4084809254855,2.16319696046412,2015-07-15 21:58:04
39.4098179228604,2.16589199379086,2015-07-15 22:08:05
39.4121919292957,2.16938992962241,2015-07-15 22:18:04
39.4148819334805,2.17313999310136,2015-07-15 22:28:03
39.4168999604881,2.17577593401074,2015-07-15 22:38:03
39.41944998689,2.17946296557784,2015-07-15 22:48:03
39.4218569342047,2.18308998271823,2015-07-15 22:58:04
39.4238639809191,2.18556893058121,2015-07-15 23:08:04
39.4266419950873,2.18920198269188,2015-07-15 23:18:05
39.4293839670718,2.19286495819688,2015-07-15 23:28:04
39.4310639519244,2.1938859578222,2015-07-15 23:40:02
39.4318989571184,2.19335597008467,2015-07-15 23:50:01
39.4339959416538,2.1976749971509,2015-07-16 00:01:04
39.4364369194955,2.20116698183119,2015-07-16 00:11:04
39.4389979261905,2.20460792072117,2015-07-16 00:21:04
39.4416809733957,2.2082849778235,2015-07-16 00:31:04
39.4444429781288,2.21246092580259,2015-07-16 00:42:00
39.4465839676559,2.21745193004608,2015-07-16 00:52:02
39.4486839696765,2.22215593792498,2015-07-16 01:02:02
39.4507389608771,2.22620096057653,2015-07-16 01:12:01
39.4530309922993,2.23084495402873,2015-07-16 01:22:00
39.4552319962531,2.23549598827958,2015-07-16 01:32:00
39.4574729818851,2.24019094370306,2015-07-16 01:42:00
39.4599529355764,2.24469495937228,2015-07-16 01:52:01
39.4630139227957,2.24954397417605,2015-07-16 02:02:01
39.4659399613738,2.2538239415735,2015-07-16 02:12:01
39.4688219949603,2.2585419472307,2015-07-16 02:22:01
39.4714449439198,2.2627279534936,2015-07-16 02:32:00
39.4744869880378,2.26756598800421,2015-07-16 02:42:01
39.477486955002,2.27184696123004,2015-07-16 02:52:01
39.4805279932916,2.27641895413399,2015-07-16 03:02:01
39.483266947791,2.2800499945879,2015-07-16 03:12:01
39.4867259915918,2.28474193252623,2015-07-16 03:22:01
39.4900879729539,2.28951592929661,2015-07-16 03:32:00
39.4926549308002,2.2936559189111,2015-07-16 03:42:00
39.4951029494405,2.2985409758985,2015-07-16 03:52:00
39.4973569270223,2.30280593968928,2015-07-16 04:02:01
39.4992309529334,2.30611595325172,2015-07-16 04:12:00
39.5012219902128,2.31182897463441,2015-07-16 04:22:00
39.5036369841546,2.31753193773329,2015-07-16 04:32:01
39.5066699758172,2.32264699414372,2015-07-16 04:42:01
39.5095649175346,2.32762098312378,2015-07-16 04:52:01
39.5119829289615,2.33152996748686,2015-07-16 05:02:00
39.5142969209701,2.33627697452903,2015-07-16 05:13:00
39.5181719586253,2.34264596365392,2015-07-16 05:23:00
39.5198269654065,2.34387198463082,2015-07-16 05:34:02
39.5241979602724,2.35016494989395,2015-07-16 05:44:01
39.5271309558302,2.35416194424033,2015-07-16 05:54:00
39.5301539730281,2.35897894017398,2015-07-16 06:04:01
39.532320946455,2.36265599727631,2015-07-16 06:15:05
39.53234994784,2.36266295425594,2015-07-16 06:16:01
